User: anonymous   Login
Location: Deer Lodge Site
(39.6809°N, 119.9392°W)
Time: 05:16:07
(UTC-07:00)
Language:

CZ-4C R/B - Orbit

View from above orbital plane
View from above orbital plane
View from above satellite
View from above satellite

Ground track
Ground track

The orbit data is extracted from the following two-line orbital elements,

1 36416U 10009D   16207.88410904 -.00000101  00000-0 -30689-5 0  9995
2 36416  63.4425  58.8518 0354855 357.2474   2.6603 13.69499166319681
Epoch (UTC): 25 July 2016 21:13:07
Eccentricity: 0.0354855
inclination: 63.4425°
perigee height: 739 km
apogee height: 1263 km
right ascension of ascending node: 58.8518°
argument of perigee: 357.2474°
revolutions per day: 13.69499166
mean anomaly at epoch: 2.6603°
orbit number at epoch: 31968

The dashed part of the orbit path shows where the satellite is in the earth's shadow,  

DLR